User: anonymous   Login
Location: Clinton NY
(43.0598°N, 75.3602°W)
Time: 02:48:52
(UTC-04:00)
Language:

ISS - Orbit

View from above orbital plane
View from above orbital plane
View from above satellite
View from above satellite

Ground track
Ground track

The orbit data is extracted from the following two-line orbital elements,

1 25544U 98067A   16146.91056839  .00002655  00000-0  46410-4 0  9996
2 25544  51.6421 169.1590 0001759 120.0586 304.3718 15.54690686  1520
Epoch (UTC): 25 May 2016 21:51:13
Eccentricity: 0.0001759
inclination: 51.6421°
perigee height: 402 km
apogee height: 404 km
right ascension of ascending node: 169.1590°
argument of perigee: 120.0586°
revolutions per day: 15.54690686
mean anomaly at epoch: 304.3718°
orbit number at epoch: 152

The dashed part of the orbit path shows where the satellite is in the earth's shadow,  

DLR